星链-4670 (STARLINK-4670 )

导读

STARLINK-4670是美国SpaceX公司星链(Starlink)卫星互联网星座的成员,于2022年9月5日发射入轨。作为星链低轨星座的组网卫星,它运行在近地轨道,为全球偏远地区、海上、航空等场景提供低延迟高速宽带互联网接入服务。它是星链大规模星座建设的一部分,支撑了星链网络覆盖范围和服务容量的扩张,目前星链已在全球超过150个国家提供服务。

Basic Information
目录编号:
53744
目录名称:
STARLINK-4670
国际标识:
2022-107AW
轨道中心:
EARTH
卫星名称:
星链-4670
卫星全名:
星链-4670 (STARLINK-4670 )
卫星状态:
在轨 (已飞行1460 天)
发射日期:
2022-09-05 UTC
国别 :
美国 (US)
星等 :
--
Orbit Information
数据来源 国际轨道数据 AOE轨道数据
星历时间 2026-09-04T03:05:20+0800
10小时前
查看轨道信息
2026-08-30T18:00:00+0800
4天前
查看轨道信息
半长轴 6848.885km 6848.887km
偏心率 0.0001309 0.0001326
轨道倾角 53.161° 53.160°
近地点辐角 84.382° 65.017°
升交点赤经 177.549° 197.938°
平近点角 275.733° 256.907°
近地点 469.851km 469.841km
远地点 471.645km 471.659km
周期 94.013分钟 94.013分钟
每日圈数 15.316974 15.316969
Detailed Information
固有亮度:
5
最大亮度:
2.5
卫星平台:
Starlink v1.5
覆盖范围:
全球
运营商:
太空探索技术公司
运营商所在国:
美国
制造商(研发单位):
太空探索技术公司
制造商所在国:
美国
使用方式:
暂无
Satellite Introduction
星链(Starlink)计划是由太空探索技术公司(SpaceX)提出的一个巨型低轨卫星互联网星座项目,计划在2019年至2024年间在太空搭建由约1.2万颗卫星组成的“星链”网络,其中1584颗将部署在地球上空550千米处的近地轨道,并从2020年开始工作。该卫星仍在工作。
2D Orbit Map
3D Orbit Map
Orbit Altitude Analysis Chart
Orbit Inclination Analysis Chart
Orbit Comprehensive Analysis Chart
View Comprehensive Chart
Conjunction Data List
Event ID Objects TCA Miss Dist (km) Collision Risk Probability Collision Risk Index (CRI) Action
CDM_260905-032905-374406-371221
2026-09-05T
03:29:22+0000
0.386 km
远距离
2.278257E-4 高风险 0.82
CDM_260829-184805-374406-371222
2026-08-29T
18:48:14+0000
1.550 km
极远距离
3.550915E-6 低风险 0.46
CDM_260901-205505-374406-831321
2026-09-01T
20:55:34+0000
2.802 km
极远距离
1.459862E-6 低风险 0.38
CDM_260829-202205-374406-371223
2026-08-29T
20:22:11+0000
2.755 km
极远距离
9.526759E-7 极低风险 0.35